{"data":{"norad_id":52134,"intl_designator":"2022-029AY","name":"STARLINK-3721","alt_names":[],"object_type":"PAYLOAD","status":"ACTIVE","operator":null,"country":"US","launch_date":"2022-03-19","launch_site_code":"AFETR","launch_vehicle":null,"mission":null,"orbit_class":"UNKNOWN","rcs_meters":null,"size_class":null,"mass_kg":null,"dimensions":null,"purposes":["comms"],"wikipedia_slug":null,"has_3d_model":false,"image_url":null,"decayed_at":null,"tle_current":{"epoch":"2026-09-19T17:59:21.516576Z","epoch_age_seconds":120625,"freshness":"FRESH","line1":"1 52134U 22029AY  26262.74955459 -.00000446  00000+0 -20647-5 0  9995","line2":"2 52134  53.1603 270.9333 0001274  87.3436 272.7712 15.34387133250325","mean_motion":15.34387133,"eccentricity":0.0001274,"inclination_deg":53.1603,"raan_deg":270.9333,"arg_perigee_deg":87.3436,"mean_anomaly_deg":272.7712,"bstar":-2.0647e-6,"rev_number":25032,"period_min":93.848545065973,"perigee_km":461.8699559911,"apogee_km":463.6130118288,"semimajor_km":6840.87848391,"source":"CELESTRAK","updated_at":"2026-09-20T09:00:39.991999Z"}}}